Home > Weather > Rochester > Past weeks

Flag for USA Weather for the Past 2 Weeks in Rochester, New York, USA

Now
48 °F

Partly sunny.


Feels Like: 46 °F
Forecast: 40 / 54 °F
Wind: 5 mph from Northeast

Location: Greater Rochester International Airport

Current Time: May 3, 2016 at 9:38:26 AM

Latest Report: May 3, 2016 at 8:54 AM


Visibility: 10 mi

Pressure: 29.95 "Hg

Humidity: 80%

Dew Point: 42 °F

Location of RochesterLocation

Historic Weather in Rochester — Graph

°F

Rochester Temperature Yesterday

Maximum temperature yesterday: 50 °F (at 5:54 PM)
Minimum temperature yesterday: 42 °F (at 11:54 PM)
Average temperature yesterday: 46 °F

High & Low Weather Summary for the Past Weeks

 TemperatureHumidityPressure
High75 °F (Apr 21, 2:54 PM)100% (May 1, 7:54 PM)30.37 "Hg (May 1, 7:54 PM)
Low30 °F (Apr 27, 4:54 AM)14% (Apr 20, 5:54 PM)29.71 "Hg (Apr 26, 6:54 AM)
Average49 °F60%30.07 "Hg
* Reported Apr 18 7:54 AM — May 3 7:54 AM, Rochester, Weather by CustomWeather, © 2016

Note: Actual official high and low records may vary slightly from our data, if they occured in-between our weather recording intervals... More about our weather records

Advertising

Rochester Weather History for the Previous 24 Hours

Scroll right to see more
 ConditionsComfort  
Time TempWeatherWind HumidityBarometerVisibility
7:54 AM
Tue, May 3
45 °FMostly cloudy.No wind90%29.95 "Hg10 mi
6:54 AM42 °FFog.No wind96%29.94 "Hg6 mi
5:54 AM41 °FFog.No wind96%29.95 "Hg5 mi
4:54 AM40 °FFog.5 mph93%29.96 "Hg1 mi
3:54 AM38 °FClear.No wind97%29.97 "Hg10 mi
2:54 AM39 °FFog.3 mph93%29.98 "Hg6 mi
1:54 AM39 °FPassing clouds.No wind96%29.99 "Hg10 mi
12:54 AM41 °FPassing clouds.No wind93%30.00 "Hg10 mi
11:54 PM
Mon, May 2
42 °FPassing clouds.No wind92%29.99 "Hg9 mi
10:54 PM44 °FPassing clouds.No wind89%30.00 "Hg10 mi
9:54 PM46 °FPartly cloudy.No wind86%30.02 "Hg10 mi
8:54 PM48 °FPartly sunny.5 mph77%30.01 "Hg10 mi
7:54 PM49 °FBroken clouds.No wind77%30.03 "Hg10 mi
6:54 PM50 °FMostly cloudy.5 mph74%30.01 "Hg10 mi
5:54 PM50 °FMostly cloudy.No wind77%30.02 "Hg10 mi
4:54 PM49 °FMostly cloudy.5 mph80%30.01 "Hg10 mi
3:54 PM48 °FOvercast.6 mph83%30.02 "Hg10 mi
2:54 PM48 °FLow clouds.9 mph83%30.00 "Hg10 mi
1:54 PM48 °FLow clouds.6 mph86%30.00 "Hg10 mi
12:54 PM47 °FMostly cloudy.9 mph93%29.99 "Hg10 mi
11:54 AM46 °FRain. Fog.8 mph93%30.00 "Hg4 mi
10:54 AM45 °FLight rain. Low clouds.13 mph97%29.97 "Hg8 mi
9:54 AM44 °FLight rain. Fog.12 mph96%29.95 "Hg4 mi
Weather by CustomWeather, © 2016

See weather overviewHow to use our weather pages